Tehachapi, CA

3:02 AM PDT on October 17, 2017 (GMT -0700)
Tehachapi Municipal

Weather History for KTSP - January, 2012

Change the Weather History Date:

Thursday, January 12, 2012

  Actual Average Record
Temperature  
Mean Temperature 42 °F -  
Max Temperature 55 °F 51 °F 55 °F (2012)
Min Temperature 28 °F 33 °F 14 °F (2013)
Degree Days  
Heating Degree Days 24    
Moisture  
Dew Point 7 °F    
Average Humidity 23    
Maximum Humidity 43    
Minimum Humidity 13    
Precipitation  
Precipitation 0.00 in - - ()
Sea Level Pressure  
Sea Level Pressure 30.14 in    
Wind  
Wind Speed 11 mph (ESE)    
Max Wind Speed 16 mph    
Max Gust Speed 23 mph    
Visibility 10 miles    
Events      
Averages and records for this station are not official NWS values.
T = Trace of Precipitation, MM = Missing Value Source: NWS Daily Summary

Daily Weather History Graph

Daily Weather History Graph

Search for Another Location

Airport or City:

Trip Planner

Search our weather history database for the weather conditions in past years. The results will help you decide how hot, cold, wet, or windy it might be!

Date:

Astronomy

Jan. 12, 2012 Rise Set
Actual Time 7:02 AM PST 5:01 PM PST
Civil Twilight 6:34 AM PST 5:29 PM PST
Nautical Twilight 6:03 AM PST 6:00 PM PST
Astronomical Twilight 5:32 AM PST 6:31 PM PST
Moon 9:01 PM PST (1/12) 8:58 AM PST (1/12)
Length of Visible Light 10h 55m
Length of Day
9h 59m
Waning Gibbous, 86% of the Moon is Illuminated
Jan 12
Waning Gibbous
Jan 16
Last Quarter
Jan 22
New
Jan 30
First Quarter
Feb 7
Full

Hourly Weather History & Observations

Time (PST) Temp. Windchill Dew Point Humidity Pressure Visibility Wind Dir Wind Speed Gust Speed Precip Events Conditions
12:15 AM 35.6 °F 28.0 °F 10.4 °F 35% 30.14 in 10.0 mi ESE 10.4 mph - N/A   Clear
12:35 AM 39.2 °F 33.6 °F 10.4 °F 31% 30.14 in 10.0 mi East 8.1 mph - N/A   Clear
12:55 AM 39.2 °F 33.0 °F 10.4 °F 31% 30.14 in 10.0 mi ESE 9.2 mph - N/A   Clear
1:15 AM 37.4 °F 30.3 °F 8.6 °F 30% 30.14 in 10.0 mi East 10.4 mph - N/A   Clear
1:35 AM 41.0 °F 34.3 °F 8.6 °F 26% 30.14 in 10.0 mi East 11.5 mph - N/A   Clear
1:55 AM 44.6 °F 38.8 °F 6.8 °F 21% 30.14 in 10.0 mi East 11.5 mph - N/A   Clear
2:15 AM 35.6 °F 28.0 °F 8.6 °F 33% 30.13 in 10.0 mi ESE 10.4 mph - N/A   Clear
2:35 AM 32.0 °F 23.0 °F 8.6 °F 38% 30.13 in 10.0 mi ESE 11.5 mph - N/A   Clear
2:55 AM 32.0 °F 23.6 °F 8.6 °F 38% 30.13 in 10.0 mi SE 10.4 mph - N/A   Clear
3:15 AM 35.6 °F 28.6 °F 8.6 °F 33% 30.12 in 10.0 mi ESE 9.2 mph - N/A   Clear
3:35 AM 32.0 °F 23.6 °F 8.6 °F 38% 30.12 in 10.0 mi ESE 10.4 mph - N/A   Clear
3:55 AM 32.0 °F 24.2 °F 8.6 °F 38% 30.12 in 10.0 mi SE 9.2 mph - N/A   Clear
4:15 AM 32.0 °F 23.0 °F 8.6 °F 38% 30.12 in 10.0 mi ESE 11.5 mph - N/A   Clear
4:35 AM 35.6 °F 29.2 °F 8.6 °F 33% 30.13 in 10.0 mi ESE 8.1 mph - N/A   Clear
4:55 AM 28.4 °F 19.1 °F 8.6 °F 43% 30.13 in 10.0 mi SE 10.4 mph - N/A   Clear
5:15 AM 32.0 °F 23.6 °F 8.6 °F 38% 30.13 in 10.0 mi ESE 10.4 mph - N/A   Clear
5:35 AM 35.6 °F 28.6 °F 6.8 °F 30% 30.13 in 10.0 mi ESE 9.2 mph - N/A   Clear
5:55 AM 37.4 °F 30.3 °F 6.8 °F 28% 30.14 in 10.0 mi ESE 10.4 mph - N/A   Clear
6:15 AM 39.2 °F 31.6 °F 6.8 °F 26% 30.14 in 10.0 mi East 12.7 mph - N/A   Clear
6:35 AM 39.2 °F 32.0 °F 6.8 °F 26% 30.14 in 10.0 mi East 11.5 mph - N/A   Clear
6:55 AM 39.2 °F 32.0 °F 6.8 °F 26% 30.14 in 9.0 mi East 11.5 mph - N/A   Clear
7:15 AM 39.2 °F 32.5 °F 6.8 °F 26% 30.15 in 9.0 mi East 10.4 mph - N/A   Clear
7:35 AM 41.0 °F 34.3 °F 6.8 °F 24% 30.15 in 9.0 mi East 11.5 mph - N/A   Clear
7:55 AM 41.0 °F 34.3 °F 6.8 °F 24% 30.15 in 9.0 mi ESE 11.5 mph 17.3 mph N/A   Clear
8:15 AM 44.6 °F 38.1 °F 8.6 °F 23% 30.16 in 7.0 mi ESE 13.8 mph - N/A   Clear
8:35 AM 46.4 °F 40.7 °F 6.8 °F 20% 30.17 in 10.0 mi ESE 12.7 mph - N/A   Clear
9:15 AM 50.0 °F - 6.8 °F 17% 30.18 in 9.0 mi ESE 10.4 mph 16.1 mph N/A   Clear
9:35 AM 50.0 °F - 6.8 °F 17% 30.18 in 9.0 mi SE 13.8 mph 17.3 mph N/A   Clear
9:55 AM 51.8 °F - 6.8 °F 16% 30.18 in 9.0 mi SE 13.8 mph 18.4 mph N/A   Clear
10:15 AM 53.6 °F - 5.0 °F 14% 30.18 in 7.0 mi SE 12.7 mph 19.6 mph N/A   Clear
10:35 AM 53.6 °F - 5.0 °F 14% 30.18 in 7.0 mi ESE 11.5 mph 18.4 mph N/A   Clear
10:55 AM 53.6 °F - 6.8 °F 15% 30.17 in 8.0 mi SE 15.0 mph 19.6 mph N/A   Clear
11:15 AM 53.6 °F - 6.8 °F 15% 30.16 in 10.0 mi SSE 16.1 mph - N/A   Clear
11:35 AM 53.6 °F - 6.8 °F 15% 30.15 in 9.0 mi SE 12.7 mph 19.6 mph N/A   Clear
11:55 AM 53.6 °F - 6.8 °F 15% 30.15 in 9.0 mi ESE 16.1 mph 23.0 mph N/A   Clear
12:15 PM 55.4 °F - 6.8 °F 14% 30.14 in 9.0 mi SE 16.1 mph - N/A   Clear
12:35 PM 55.4 °F - 6.8 °F 14% 30.13 in 9.0 mi SE 16.1 mph 19.6 mph N/A   Clear
12:55 PM 55.4 °F - 6.8 °F 14% 30.13 in 8.0 mi SE 12.7 mph 20.7 mph N/A   Clear
1:15 PM 55.4 °F - 5.0 °F 13% 30.12 in 10.0 mi SSE 13.8 mph 19.6 mph N/A   Clear
1:35 PM 55.4 °F - 5.0 °F 13% 30.12 in 10.0 mi SE 11.5 mph 20.7 mph N/A   Clear
1:55 PM 55.4 °F - 5.0 °F 13% 30.12 in 10.0 mi SE 13.8 mph 21.9 mph N/A   Clear
2:15 PM 55.4 °F - 5.0 °F 13% 30.12 in 10.0 mi SE 13.8 mph 21.9 mph N/A   Clear
2:35 PM 55.4 °F - 6.8 °F 14% 30.12 in 8.0 mi SE 15.0 mph 23.0 mph N/A   Clear
3:15 PM 55.4 °F - 6.8 °F 14% 30.13 in 10.0 mi SSE 13.8 mph 19.6 mph N/A   Clear
3:35 PM 55.4 °F - 6.8 °F 14% 30.14 in 10.0 mi SE 12.7 mph 16.1 mph N/A   Clear
3:55 PM 53.6 °F - 6.8 °F 15% 30.14 in 9.0 mi SE 13.8 mph - N/A   Clear
4:15 PM 51.8 °F - 5.0 °F 15% 30.14 in 9.0 mi SE 13.8 mph 18.4 mph N/A   Clear
4:35 PM 50.0 °F - 3.2 °F 15% 30.14 in 10.0 mi SE 11.5 mph 19.6 mph N/A   Clear
4:55 PM 46.4 °F 42.9 °F 5.0 °F 18% 30.14 in 9.0 mi ESE 6.9 mph - N/A   Clear
5:15 PM 44.6 °F 38.8 °F 5.0 °F 20% 30.15 in 10.0 mi East 11.5 mph - N/A   Clear
5:35 PM 44.6 °F 38.8 °F 5.0 °F 20% 30.15 in 10.0 mi ESE 11.5 mph - N/A   Clear
5:55 PM 44.6 °F 38.8 °F 5.0 °F 20% 30.16 in 10.0 mi East 11.5 mph - N/A   Clear
6:15 PM 41.0 °F 34.7 °F 5.0 °F 23% 30.16 in 10.0 mi East 10.4 mph - N/A   Clear
6:35 PM 41.0 °F 35.2 °F 5.0 °F 23% 30.16 in 10.0 mi East 9.2 mph - N/A   Clear
6:55 PM 41.0 °F 34.7 °F 5.0 °F 23% 30.17 in 10.0 mi East 10.4 mph - N/A   Clear
7:15 PM 41.0 °F 34.3 °F 3.2 °F 21% 30.17 in 10.0 mi SE 11.5 mph - N/A   Clear
7:35 PM 42.8 °F 36.2 °F 1.4 °F 18% 30.18 in 10.0 mi SE 12.7 mph - N/A   Clear
7:55 PM 39.2 °F 31.6 °F 1.4 °F 21% 30.19 in 10.0 mi SE 12.7 mph - N/A   Clear
8:15 PM 41.0 °F 34.3 °F -0.4 °F 18% 30.19 in 10.0 mi East 11.5 mph - N/A   Clear
8:35 PM 41.0 °F 35.8 °F -0.4 °F 18% 30.19 in 10.0 mi East 8.1 mph - N/A   Clear
8:55 PM 41.0 °F 34.3 °F -0.4 °F 18% 30.19 in 10.0 mi East 11.5 mph - N/A   Clear
9:15 PM 42.8 °F 37.0 °F -0.4 °F 16% 30.19 in 10.0 mi East 10.4 mph - N/A   Clear
9:35 PM 39.2 °F 32.0 °F -0.4 °F 19% 30.20 in 10.0 mi East 11.5 mph - N/A   Clear
9:55 PM 41.0 °F 34.3 °F 1.4 °F 19% 30.20 in 10.0 mi East 11.5 mph - N/A   Clear
10:15 PM 39.2 °F 32.0 °F 1.4 °F 21% 30.21 in 10.0 mi East 11.5 mph - N/A   Clear
10:35 PM 41.0 °F 34.7 °F 1.4 °F 19% 30.22 in 10.0 mi East 10.4 mph - N/A   Clear
11:15 PM 39.2 °F 33.0 °F 1.4 °F 21% 30.22 in 10.0 mi East 9.2 mph - N/A   Clear
11:35 PM 39.2 °F 32.0 °F 1.4 °F 21% 30.22 in 10.0 mi East 11.5 mph - N/A   Clear
11:55 PM 39.2 °F 33.0 °F -0.4 °F 19% 30.22 in 10.0 mi East 9.2 mph - N/A   Clear